Temp
85 92 94 92 79 81 77 78 85 83 84 90 92 89 91 95 90 86 102 103 104 102 94 88 80 80 80 80 80 80 79 79 80 80 79 79 79 79 79 79 79 79 80 80 80 80 80 80 80
93 90 92 89 74 72 77 82 80 86 88 91 92 92 90 89 96 98 105 101 104 100 93 92 80 80 80 80 79 79 79 79 79 79 79 79 79 79 79 79 79 80 80 81 81 81 80 80 80
88 90 85 81 75 69 74 80 84 87 89 88 88 93 90 88 95 96 104 100 102 97 94 92 80 80 80 80 79 79 79 79 79 79 79 79 79 78 78 78 79 80 81 81 81 80 80 80 79
90 90 87 73 69 70 72 82 85 86 89 90 90 86 94 97 94 97 101 101 100 98 97 86 79 79 80 80 79 79 79 79 79 79 79 79 78 78 78 78 79 80 81 81 80 80 79 79 78
90 87 74 71 70 71 76 83 86 84 86 89 88 85 88 97 99 97 96 100 100 99 98 90 79 79 79 80 79 79 79 78 78 79 79 79 78 78 78 78 79 79 80 80 80 79 78 78 78
81 83 70 68 72 74 76 82 84 84 86 88 87 86 89 99 96 96 97 100 103 101 98 92 81 79 79 79 79 79 78 78 78 78 78 78 78 78 78 78 78 79 79 79 79 78 78 77 77
78 77 70 73 73 71 75 83 81 83 85 86 90 83 91 95 97 98 95 100 103 103 99 95 90 84 79 78 78 78 78 77 77 77 77 77 77 77 77 77 78 78 78 78 78 77 77 77 77
84 80 71 74 72 72 81 79 84 83 82 93 91 83 84 92 99 100 97 99 103 103 101 98 93 92 90 89 78 78 77 77 77 77 77 77 77 77 77 76 77 78 78 78 77 77 77 77 77
85 72 69 72 74 76 85 77 83 88 83 86 89 89 93 96 100 99 95 93 99 100 99 99 96 93 93 95 88 78 78 77 77 78 77 77 89 87 85 83 78 77 77 77 77 77 76 76 77
77 72 73 82 82 79 83 81 79 79 80 82 85 92 94 96 97 95 95 94 93 95 98 100 94 94 94 97 93 88 89 88 87 88 86 88 90 91 91 86 77 77 77 77 77 76 76 77 91
77 71 80 82 83 82 80 79 81 78 75 81 81 85 90 92 93 94 93 93 96 95 96 97 92 91 93 96 95 92 92 91 90 89 88 88 90 90 90 91 88 86 80 88 83 84 86 88 90
70 77 78 80 82 78 77 81 78 78 79 83 85 86 89 89 91 93 94 92 91 93 94 91 92 89 88 95 93 94 94 92 92 91 88 88 88 87 88 91 92 88 91 88 90 91 88 88 88
70 76 75 78 79 78 79 76 77 75 80 82 84 86 87 88 90 94 94 92 92 90 92 92 89 86 85 87 93 92 93 92 92 92 89 88 89 86 89 89 91 91 92 91 89 89 89 87 86
73 74 74 76 77 78 74 76 77 78 81 80 82 83 86 87 89 90 92 91 88 88 88 92 90 84 85 85 87 87 88 88 90 91 90 86 88 87 89 87 89 90 91 92 91 89 88 87 88
71 65 71 73 75 74 76 69 71 79 78 76 79 82 85 86 88 86 87 86 88 88 86 86 86 86 82 82 84 86 89 88 88 91 87 86 85 86 85 87 88 91 90 86 86 85 86 86 88
66 66 63 73 71 74 70 65 71 74 74 73 74 78 81 84 86 87 86 85 86 84 84 81 88 87 82 82 84 86 89 87 90 90 89 85 84 85 83 86 85 89 88 88 87 86 86 86 87
64 60 61 64 70 69 69 66 72 74 72 70 71 76 78 81 83 86 86 85 83 84 82 83 82 84 80 83 85 85 83 84 88 87 86 84 81 82 83 85 82 82 86 86 86 86 86 86 84
59 59 60 61 67 67 66 66 71 74 73 71 71 74 75 78 81 85 86 85 85 83 81 79 82 79 79 81 79 82 84 85 87 86 89 89 85 83 82 81 77 79 83 83 81 82 86 85 85
61 59 58 63 67 63 64 66 69 73 73 72 73 73 74 75 80 83 85 85 84 83 79 76 77 80 80 73 76 76 82 80 80 88 84 83 84 85 80 79 77 80 83 80 77 82 80 83 83
60 58 58 62 65 62 62 62 67 71 72 73 72 74 74 74 76 78 80 80 80 80 79 79 79 79 80 84 81 82 81 81 82 86 84 85 81 84 79 82 81 78 71 79 81 80 83 83 82
60 57 57 56 61 64 61 60 64 69 71 71 73 74 74 72 72 73 74 75 78 77 76 77 77 77 79 80 84 84 84 85 84 84 83 84 83 80 82 82 83 80 79 87 82 81 79 82 81
55 62 58 56 55 52 60 51 61 66 66 68 70 70 72 73 74 74 73 73 74 76 78 77 77 76 81 79 81 80 84 82 82 88 83 89 86 83 85 83 82 82 87 85 84 83 81 80 83
57 61 58 57 55 55 56 51 61 65 62 66 69 71 74 75 73 74 74 75 77 78 76 77 76 76 78 77 77 81 80 87 90 92 87 86 88 85 86 85 84 84 85 85 84 82 79 85 85
63 59 59 59 56 47 56 53 59 61 63 66 69 71 73 74 75 75 76 77 78 79 79 77 75 74 76 77 77 76 75 79 85 88 89 90 91 87 83 86 84 84 84 84 84 83 81 81 83
60 55 47 46 46 48 54 50 59 63 65 67 67 70 73 73 73 73 76 76 76 77 77 76 77 74 76 76 77 77 77 76 77 80 86 86 91 91 86 83 84 86 83 85 84 81 81 80 81
57 54 45 34 42 49 55 47 56 65 67 68 69 71 72 72 74 73 75 76 77 77 77 77 76 74 74 75 76 77 77 81 82 81 84 87 90 90 84 83 85 85 86 84 83 84 83 81 80
53 49 57 45 48 44 51 56 63 66 65 66 68 68 70 70 72 74 75 76 76 75 75 76 76 76 76 76 74 74 74 75 78 81 81 83 84 86 82 83 84 85 85 83 82 84 80 81 79
56 60 45 48 34 37 49 51 55 59 61 64 65 66 68 70 72 73 74 75 75 75 76 76 76 76 77 76 76 77 77 78 76 76 77 81 83 83 84 85 84 83 83 83 81 83 81 80 81
49 51 50 49 48 39 40 50 61 59 62 61 64 67 69 70 73 73 74 75 75 77 77 76 76 77 77 77 77 76 77 79 80 80 81 81 82 83 82 85 84 84 83 83 81 83 83 81 81
57 53 53 41 39 43 41 44 65 63 65 63 65 67 69 70 71 73 73 74 74 76 77 76 76 76 77 78 77 77 77 77 77 79 81 83 83 84 85 86 86 86 85 83 82 83 84 82 80
MSLP
1010.63 1010.09 1009.57 1008.25 1006.86 1004.69 1002.69 1002.65 1003.10 1002.75 1002.88 1003.24 1003.33 1003.18 1002.39 1001.82 1001.70 1001.19 1002.72 1003.10 1003.54 1004.51 1005.88 1007.31 1008.32 1009.03 1009.47 1009.66 1009.93 1010.26 1010.65 1010.88 1011.29 1011.52 1011.90 1012.19 1012.56 1012.93 1013.31 1013.65 1013.98 1014.12 1014.37 1014.53 1014.79 1015.00 1015.15 1015.30 1015.38
1010.14 1009.86 1009.20 1007.67 1006.20 1003.85 1002.71 1003.24 1003.09 1002.69 1003.47 1003.71 1003.40 1003.16 1003.00 1002.49 1003.21 1002.94 1002.41 1003.69 1004.25 1004.96 1006.00 1006.84 1008.34 1009.10 1009.55 1009.76 1010.03 1010.29 1010.73 1010.99 1011.28 1011.63 1012.03 1012.33 1012.69 1013.15 1013.54 1013.80 1014.16 1014.40 1014.61 1014.82 1015.02 1015.15 1015.29 1015.52 1015.57
1010.46 1009.89 1008.14 1006.78 1005.80 1004.55 1003.51 1003.76 1003.37 1003.54 1003.94 1003.86 1003.38 1003.47 1003.56 1003.17 1003.98 1003.94 1003.31 1004.50 1004.66 1005.40 1006.08 1006.54 1007.80 1008.92 1009.72 1010.13 1010.28 1010.48 1010.78 1011.01 1011.29 1011.66 1012.06 1012.46 1012.72 1013.11 1013.51 1013.86 1014.19 1014.45 1014.74 1014.96 1015.19 1015.35 1015.43 1015.54 1015.75
1009.67 1008.95 1008.19 1006.84 1005.91 1006.38 1005.83 1004.74 1004.51 1004.03 1003.93 1004.09 1003.93 1003.32 1003.61 1004.28 1004.53 1004.81 1004.19 1004.38 1004.82 1005.26 1005.80 1006.83 1007.74 1008.59 1009.46 1010.20 1010.55 1010.71 1010.92 1011.20 1011.40 1011.69 1012.03 1012.44 1012.82 1013.15 1013.52 1013.89 1014.23 1014.38 1014.64 1014.82 1015.06 1015.34 1015.50 1015.73 1015.85
1009.43 1008.14 1006.91 1006.33 1006.18 1006.76 1006.37 1005.96 1005.15 1004.48 1004.13 1003.90 1004.14 1003.54 1003.66 1004.15 1004.69 1004.70 1004.41 1004.01 1004.33 1005.12 1005.60 1006.83 1007.77 1008.53 1009.23 1009.93 1010.46 1010.80 1011.02 1011.35 1011.54 1011.73 1012.07 1012.57 1012.96 1013.25 1013.59 1013.87 1014.18 1014.44 1014.68 1014.92 1015.17 1015.52 1015.69 1015.84 1015.95
1008.27 1007.66 1006.33 1005.42 1005.40 1006.23 1006.24 1006.06 1005.49 1004.87 1004.34 1004.08 1004.11 1004.09 1003.76 1004.22 1004.64 1004.72 1004.41 1003.95 1004.30 1004.76 1005.62 1006.76 1008.02 1008.37 1009.47 1010.08 1010.52 1010.97 1011.24 1011.51 1011.72 1011.93 1012.09 1012.53 1013.04 1013.43 1013.72 1014.00 1014.29 1014.56 1014.91 1015.09 1015.32 1015.61 1015.96 1016.14 1016.21
1007.66 1006.63 1005.74 1005.14 1004.78 1005.69 1005.78 1005.83 1005.63 1005.26 1004.75 1004.08 1004.79 1004.18 1003.89 1004.29 1004.80 1004.74 1004.65 1004.16 1004.17 1004.75 1005.58 1006.55 1007.83 1008.41 1009.21 1009.97 1010.57 1011.20 1011.50 1011.80 1012.01 1012.23 1012.51 1012.69 1013.08 1013.65 1014.06 1014.34 1014.53 1014.59 1014.81 1014.95 1015.17 1015.56 1015.84 1016.13 1016.30
1007.06 1006.37 1005.47 1004.65 1004.15 1004.33 1005.25 1005.80 1005.62 1005.51 1005.26 1005.06 1005.04 1003.92 1004.13 1004.75 1004.58 1004.40 1004.70 1004.30 1004.06 1004.69 1005.39 1006.37 1007.25 1008.16 1008.92 1009.68 1010.73 1011.20 1011.79 1012.17 1012.47 1012.74 1012.90 1013.14 1013.43 1013.88 1014.18 1014.59 1014.69 1014.70 1014.85 1015.06 1015.18 1015.38 1015.62 1015.89 1016.07
1007.59 1006.07 1004.53 1003.99 1003.89 1004.13 1004.71 1005.54 1005.38 1005.60 1005.75 1005.58 1005.30 1005.14 1004.99 1005.04 1004.58 1004.21 1004.42 1004.61 1004.33 1004.67 1005.33 1006.02 1007.01 1007.83 1008.23 1008.76 1010.17 1011.31 1011.71 1012.30 1012.60 1013.05 1013.30 1013.45 1013.16 1013.53 1013.87 1014.30 1014.57 1014.91 1015.04 1015.07 1015.08 1015.34 1015.60 1015.88 1016.05
1006.71 1005.33 1004.10 1003.90 1003.76 1004.05 1004.26 1004.95 1005.17 1005.44 1005.53 1005.21 1005.27 1004.97 1005.31 1005.10 1004.50 1004.14 1004.04 1004.02 1004.61 1004.95 1005.34 1005.90 1006.88 1007.65 1007.99 1008.21 1009.09 1010.50 1010.86 1011.53 1011.90 1012.30 1012.62 1012.83 1012.72 1013.00 1013.04 1013.48 1014.49 1014.78 1014.99 1014.90 1015.17 1015.27 1015.47 1015.71 1014.64
1006.27 1004.88 1004.25 1003.98 1004.21 1004.94 1004.70 1005.03 1005.53 1004.73 1004.97 1005.18 1005.36 1005.68 1005.62 1005.27 1004.79 1004.15 1004.39 1004.43 1004.20 1005.09 1005.66 1006.05 1007.03 1007.68 1007.93 1007.96 1008.64 1009.46 1009.94 1010.68 1011.21 1011.78 1012.00 1012.38 1012.29 1012.66 1013.12 1013.02 1013.68 1014.06 1014.65 1014.43 1014.66 1014.77 1014.73 1014.23 1014.13
1006.40 1005.70 1005.44 1004.77 1005.02 1005.74 1005.37 1005.28 1004.97 1005.25 1004.69 1005.56 1005.97 1006.06 1005.73 1005.34 1004.89 1004.50 1004.30 1004.48 1004.80 1004.90 1005.41 1006.56 1007.00 1007.99 1008.17 1007.88 1008.62 1008.73 1009.22 1009.96 1010.42 1011.00 1011.70 1011.81 1012.26 1012.40 1012.60 1012.39 1012.86 1013.51 1013.35 1013.70 1013.52 1013.58 1013.85 1013.99 1014.03
1006.90 1005.74 1006.25 1006.11 1005.77 1006.06 1005.88 1005.58 1005.35 1005.57 1005.22 1006.26 1006.14 1005.86 1005.57 1005.28 1004.87 1004.50 1004.30 1004.78 1004.58 1004.83 1005.23 1006.11 1006.99 1007.97 1008.32 1008.32 1008.29 1008.63 1008.89 1009.52 1009.87 1010.34 1011.10 1011.38 1011.65 1012.14 1012.20 1012.22 1012.35 1012.47 1012.53 1012.70 1013.01 1013.02 1013.31 1013.70 1013.96
1006.60 1006.47 1006.47 1006.25 1006.09 1005.94 1005.76 1005.38 1005.44 1005.36 1005.74 1005.78 1005.61 1005.68 1005.49 1005.20 1004.88 1004.73 1004.32 1004.64 1004.80 1004.94 1005.39 1005.82 1006.37 1007.35 1008.11 1008.28 1008.19 1008.68 1008.97 1009.20 1009.79 1009.91 1010.42 1011.29 1011.23 1011.55 1011.78 1012.00 1012.14 1012.07 1012.31 1012.31 1012.63 1012.75 1013.09 1013.29 1013.32
1007.55 1007.30 1006.56 1006.12 1005.98 1005.79 1006.08 1005.50 1004.95 1005.44 1005.91 1005.61 1005.26 1005.46 1005.56 1005.22 1005.12 1005.02 1004.90 1005.16 1005.28 1005.08 1005.29 1005.58 1006.29 1006.69 1007.28 1007.92 1008.37 1008.40 1008.66 1008.98 1009.32 1009.41 1010.37 1010.75 1011.24 1011.20 1011.50 1011.32 1011.42 1011.44 1011.99 1012.42 1012.28 1012.40 1012.77 1012.99 1012.85
1007.43 1007.02 1005.55 1004.92 1005.83 1005.93 1006.68 1004.43 1004.99 1006.12 1005.97 1005.91 1005.89 1005.57 1005.42 1005.18 1004.92 1005.24 1005.14 1005.32 1005.69 1005.77 1005.53 1005.58 1005.73 1005.83 1006.60 1007.16 1007.35 1007.80 1008.22 1008.41 1008.49 1008.86 1009.57 1010.31 1010.75 1010.90 1010.97 1010.99 1011.35 1011.16 1011.78 1012.19 1012.48 1012.24 1011.69 1012.00 1012.22
1006.76 1005.30 1005.23 1005.19 1006.12 1005.89 1006.02 1004.43 1004.97 1005.98 1005.89 1005.91 1006.08 1005.41 1005.03 1005.06 1004.93 1005.25 1005.44 1005.27 1005.85 1006.09 1005.69 1005.42 1005.61 1005.80 1005.87 1006.54 1006.87 1007.25 1007.85 1008.03 1007.93 1008.54 1009.09 1009.37 1010.10 1010.22 1010.62 1010.90 1011.00 1011.34 1011.40 1011.38 1011.71 1011.80 1011.80 1011.03 1011.51
1005.02 1005.60 1005.85 1005.38 1005.78 1006.09 1005.55 1005.14 1005.17 1005.42 1005.43 1005.50 1005.34 1005.10 1004.65 1004.75 1004.85 1005.06 1005.42 1005.73 1005.74 1005.76 1005.74 1005.56 1005.38 1005.13 1005.99 1006.17 1007.44 1007.35 1006.99 1007.44 1007.62 1008.05 1007.93 1007.81 1008.98 1009.86 1009.98 1010.19 1010.71 1011.02 1011.10 1011.02 1011.24 1010.94 1010.92 1011.24 1010.74
1006.71 1006.46 1006.02 1005.91 1006.27 1006.42 1005.41 1004.82 1004.71 1004.70 1004.74 1004.60 1004.60 1004.66 1004.42 1004.68 1005.02 1005.15 1005.15 1005.28 1005.20 1005.37 1005.30 1005.48 1005.92 1006.12 1005.70 1007.42 1007.25 1006.89 1006.19 1006.58 1007.24 1006.77 1007.02 1007.16 1007.90 1008.54 1009.39 1010.02 1009.05 1010.23 1010.35 1010.10 1009.98 1010.07 1010.28 1010.71 1010.94
1007.15 1006.63 1006.26 1006.47 1006.73 1006.72 1005.65 1004.75 1004.47 1004.11 1003.80 1003.73 1003.76 1004.20 1004.53 1005.11 1005.25 1005.18 1005.18 1005.61 1005.70 1005.61 1005.94 1005.98 1005.72 1006.13 1006.36 1005.65 1005.49 1005.55 1004.63 1005.65 1006.61 1006.06 1006.78 1006.23 1007.13 1007.84 1008.44 1009.01 1008.55 1008.63 1010.07 1010.88 1010.96 1009.20 1009.25 1010.27 1010.20
1007.03 1006.77 1006.53 1006.85 1006.84 1006.46 1005.58 1003.93 1003.15 1003.38 1003.46 1003.42 1003.92 1004.43 1004.87 1005.16 1005.35 1005.55 1005.61 1005.72 1005.55 1005.77 1006.18 1006.28 1006.14 1005.84 1005.48 1005.13 1004.58 1004.44 1004.65 1004.63 1005.37 1005.70 1005.54 1005.01 1006.12 1006.78 1006.63 1007.92 1007.64 1007.84 1009.05 1008.03 1009.39 1008.59 1008.67 1009.09 1009.65
1006.62 1006.91 1007.41 1007.32 1006.87 1005.19 1005.62 1003.24 1002.71 1003.02 1003.16 1003.45 1003.93 1004.20 1004.50 1004.84 1005.10 1005.23 1005.51 1005.70 1005.89 1006.11 1005.97 1006.15 1006.05 1005.75 1005.21 1005.11 1004.54 1004.24 1003.96 1004.06 1003.75 1003.87 1004.49 1004.36 1004.98 1005.25 1006.03 1006.77 1006.68 1006.99 1007.23 1007.30 1007.55 1007.90 1008.19 1009.04 1008.32
1006.96 1007.62 1007.56 1007.33 1006.63 1005.83 1004.76 1004.21 1001.46 1002.45 1002.60 1003.06 1003.40 1003.74 1004.02 1004.50 1004.97 1005.03 1005.00 1005.56 1005.68 1005.53 1005.63 1005.79 1005.79 1005.79 1005.52 1005.30 1005.15 1004.76 1004.32 1003.40 1002.84 1003.11 1003.53 1003.44 1003.81 1004.48 1005.24 1005.49 1005.88 1006.06 1006.15 1006.54 1006.91 1007.05 1007.79 1008.01 1007.76
1007.70 1007.65 1007.13 1006.66 1006.13 1004.73 1003.35 1003.42 1001.02 1001.81 1002.35 1002.67 1003.28 1003.67 1004.00 1004.16 1004.46 1004.77 1004.99 1004.93 1004.83 1005.01 1005.10 1005.12 1005.44 1005.49 1005.48 1005.36 1005.00 1004.87 1004.54 1003.94 1003.06 1002.53 1002.39 1002.32 1002.66 1003.59 1004.13 1004.65 1004.97 1005.25 1005.44 1005.91 1006.34 1006.61 1007.12 1007.35 1007.17
1007.81 1007.25 1005.80 1004.95 1004.55 1003.23 1004.19 1004.03 1002.08 1002.57 1003.10 1003.26 1003.41 1003.58 1003.57 1003.97 1004.37 1004.70 1004.64 1004.81 1004.93 1004.84 1005.11 1005.22 1004.95 1004.75 1004.89 1004.96 1004.61 1004.52 1004.42 1004.15 1003.73 1002.96 1002.40 1002.10 1001.66 1001.96 1002.72 1003.71 1003.88 1004.21 1004.96 1005.17 1005.43 1006.28 1006.52 1006.77 1006.75
1006.90 1007.20 1006.46 1005.38 1004.32 1003.23 1003.71 1002.84 1002.05 1003.04 1003.50 1003.69 1003.80 1003.78 1003.84 1003.98 1004.05 1004.63 1004.74 1004.78 1004.52 1004.46 1004.69 1004.61 1004.44 1004.44 1004.33 1004.28 1004.16 1004.07 1003.90 1003.42 1002.80 1002.31 1001.92 1001.56 1001.29 1001.23 1002.15 1002.95 1003.08 1003.42 1004.02 1004.47 1005.18 1005.49 1005.90 1006.03 1006.44
1007.31 1007.58 1007.34 1007.18 1006.59 1005.13 1003.33 1002.44 1002.56 1002.75 1003.21 1003.57 1003.53 1003.70 1003.63 1004.00 1004.40 1004.25 1004.04 1003.99 1004.15 1004.35 1004.39 1004.34 1004.11 1003.85 1003.56 1003.38 1003.36 1003.29 1003.25 1002.99 1002.36 1001.70 1001.47 1001.49 1001.41 1001.24 1001.64 1001.93 1002.44 1002.41 1003.28 1003.57 1004.55 1004.78 1005.13 1005.41 1005.90
1008.24 1007.72 1007.74 1007.66 1006.47 1004.28 1002.43 1001.77 1001.25 1001.97 1002.67 1003.29 1003.46 1003.69 1003.74 1003.95 1003.87 1003.69 1003.65 1003.65 1003.69 1003.79 1003.69 1003.68 1003.53 1003.34 1003.19 1003.02 1002.74 1002.32 1002.16 1002.04 1001.91 1001.77 1001.22 1000.84 1000.76 1000.94 1000.85 1000.86 1001.61 1002.09 1002.69 1003.03 1003.87 1004.03 1004.58 1004.70 1005.00
1008.29 1007.65 1008.19 1008.02 1006.98 1005.49 1003.44 1001.46 1002.01 1002.54 1002.91 1003.43 1003.66 1003.76 1003.77 1003.60 1003.31 1003.53 1003.47 1003.41 1003.32 1003.01 1002.85 1002.76 1002.64 1002.50 1002.34 1002.21 1002.09 1001.81 1001.31 1001.04 1000.83 1000.52 1000.28 1000.42 1000.41 1000.32 1000.47 1000.43 1000.85 1001.32 1001.79 1002.43 1003.09 1003.23 1003.48 1003.94 1004.40
1007.63 1007.07 1007.19 1007.61 1007.33 1006.73 1005.50 1002.88 1002.14 1002.60 1002.92 1003.56 1003.48 1003.64 1003.79 1003.61 1003.38 1003.31 1003.37 1003.23 1002.97 1002.49 1002.18 1002.14 1002.31 1002.09 1001.73 1001.49 1001.31 1001.12 1000.86 1000.42 1000.13 999.80 999.59 999.55 999.26 999.64 999.95 999.80 999.98 1000.37 1001.03 1001.79 1002.26 1002.48 1002.61 1003.35 1003.95
Wind_Speed
11 5 4 6 8 7 12 4 3 5 7 2 1 6 9 14 13 4 5 3 6 19 22 24 20 17 17 17 18 18 17 18 17 17 17 16 15 15 14 13 12 12 12 12 11 10 10 9 9
7 4 4 2 9 9 10 2 9 3 6 5 6 7 10 12 8 13 12 5 12 18 20 23 20 18 17 18 18 18 18 18 18 17 17 16 15 14 14 13 12 12 11 11 10 10 10 9 9
6 6 7 4 7 9 9 3 5 5 5 2 3 5 4 1 11 14 10 4 14 18 19 21 24 19 15 15 16 17 18 18 18 18 17 16 16 15 13 13 12 13 12 11 10 10 10 10 9
5 6 5 9 9 5 9 6 5 7 7 3 5 7 3 4 16 16 17 11 16 19 21 22 24 21 17 15 14 16 17 17 18 18 17 16 16 15 14 13 12 12 12 12 11 10 10 10 10
6 5 10 10 5 6 7 9 7 8 8 8 3 6 5 7 16 17 13 10 19 20 20 22 23 22 19 17 15 15 16 16 17 18 17 16 15 15 14 14 13 12 11 11 10 9 9 9 10
8 6 11 12 14 10 11 6 8 6 4 5 5 10 1 11 18 16 10 11 18 21 19 20 21 22 18 16 15 13 14 15 16 16 17 17 15 14 14 13 12 11 10 9 9 8 7 7 8
14 11 15 18 17 11 14 12 10 9 11 2 10 11 4 15 17 13 7 8 17 20 19 19 21 20 19 16 14 12 11 11 12 12 13 14 13 12 11 11 11 10 10 10 10 9 8 7 8
10 12 20 19 17 17 12 10 15 12 12 10 4 6 11 14 17 11 4 6 14 18 18 19 19 19 18 17 13 13 10 8 7 7 9 10 11 10 9 7 9 10 10 9 9 9 9 8 7
13 13 17 23 21 14 13 14 14 7 11 13 7 10 12 15 15 10 3 6 12 14 16 17 19 18 18 19 16 12 12 9 8 8 6 8 10 11 12 10 10 8 8 8 9 9 8 8 7
14 16 24 20 18 11 16 17 11 9 16 16 15 11 9 17 14 12 9 5 12 13 16 15 16 17 17 14 16 16 14 12 12 12 12 10 9 8 8 8 8 8 9 9 9 9 9 9 9
13 21 17 19 13 12 15 10 10 13 19 17 16 13 17 16 14 10 7 3 8 15 12 14 14 14 16 13 11 9 9 10 10 14 12 11 8 8 8 6 7 8 11 8 11 10 9 11 9
14 13 18 12 14 12 17 13 12 16 18 10 18 17 19 16 15 13 7 5 5 10 16 14 12 14 13 11 10 11 10 10 9 12 13 9 7 7 8 7 7 7 7 9 8 7 8 9 10
17 15 9 14 13 15 14 18 16 16 4 11 17 16 16 17 16 12 4 3 7 7 12 16 16 14 13 12 11 10 11 10 11 11 13 11 10 8 8 7 8 8 8 8 8 8 7 8 10
1 11 11 12 15 14 17 19 16 13 9 14 14 15 15 13 11 9 8 4 5 7 8 13 18 17 16 14 10 9 9 8 9 9 11 14 10 9 9 9 9 9 8 7 7 7 7 8 9
7 12 15 15 15 17 11 20 20 12 7 12 16 14 13 8 5 2 4 3 6 3 5 9 13 18 17 15 12 10 10 10 10 11 11 12 13 10 11 10 10 8 7 9 9 8 7 8 8
10 8 14 10 7 11 9 15 5 5 2 6 9 9 8 9 4 1 3 4 4 7 5 6 10 14 15 15 13 11 13 12 11 10 10 13 12 13 13 9 7 7 6 7 8 9 9 8 8
10 12 10 10 5 2 11 9 9 5 4 6 8 11 7 8 6 2 3 3 5 6 6 2 8 12 10 10 11 12 11 10 11 10 11 13 13 14 12 9 6 7 7 8 9 8 8 7 7
8 10 7 9 9 9 11 13 11 10 11 11 11 11 10 11 9 7 6 3 2 5 7 6 4 3 10 5 6 8 9 11 12 11 13 14 13 17 12 9 6 8 9 9 9 10 7 8 7
6 8 9 4 3 10 13 13 15 13 15 15 14 12 12 11 11 11 9 8 8 7 9 7 7 4 5 8 10 9 11 7 9 12 14 13 14 15 12 9 13 13 12 12 11 10 8 9 7
9 10 11 7 6 9 13 17 16 17 15 17 15 14 11 10 10 9 7 7 10 9 8 9 8 5 6 8 7 7 6 9 11 9 13 14 14 15 11 14 12 11 6 6 14 9 7 10 8
11 11 8 9 10 15 13 20 9 6 6 6 8 7 8 9 8 6 7 10 10 9 8 8 8 9 7 8 7 7 7 7 10 13 13 14 15 15 15 15 12 12 12 12 14 11 13 10 9
12 5 5 8 10 9 1 6 10 9 6 6 4 3 4 7 6 3 3 5 7 9 8 7 7 8 7 6 8 10 10 11 9 11 7 13 17 17 17 16 15 14 13 11 11 10 10 12 10
8 2 8 11 13 13 16 9 4 6 7 11 3 2 2 2 2 2 4 4 7 9 8 8 7 7 7 7 8 9 12 12 11 10 17 14 14 16 17 16 15 14 10 12 12 12 14 12 11
1 10 13 13 11 12 10 7 6 9 7 5 3 5 1 1 1 1 3 7 8 8 8 10 9 7 7 7 8 10 13 13 13 12 12 11 11 11 14 16 13 13 12 14 12 13 15 13 11
11 11 9 9 10 6 6 6 7 5 2 6 8 7 5 4 4 6 9 9 9 9 9 8 10 13 10 10 10 10 12 14 16 15 13 14 12 12 11 12 12 12 14 14 13 13 13 13 11
8 8 9 7 8 7 4 6 8 7 4 5 5 7 9 8 6 8 8 9 11 10 9 12 12 11 12 12 11 11 12 10 11 13 14 13 12 11 8 11 14 16 15 13 13 11 11 11 11
4 11 5 8 16 13 10 7 11 12 6 4 7 6 8 4 8 10 11 11 10 9 11 11 13 14 14 15 11 10 11 13 12 13 11 13 14 10 11 13 13 15 16 15 14 11 12 11 11
14 5 6 9 8 12 9 9 8 13 1 4 4 4 6 10 13 14 14 13 11 11 12 12 12 13 14 15 15 14 13 12 12 12 13 14 12 13 13 14 14 15 15 15 14 12 13 12 10
9 14 9 9 11 11 13 4 8 2 6 3 4 7 15 18 16 14 16 15 14 14 13 14 15 15 14 14 15 15 15 15 14 14 14 16 15 14 15 15 15 16 16 15 14 13 14 13 11
12 13 12 10 10 9 11 15 7 5 2 5 13 12 13 16 16 14 15 17 17 16 15 14 13 16 14 14 14 15 15 15 15 15 16 15 16 16 16 15 16 16 16 16 16 16 14 13 12
Wind_Direction
275 299 283 233 237 244 241 186 316 146 170 136 325 261 288 314 307 16 60 178 161 158 155 161 159 165 169 164 162 156 156 152 153 153 157 155 151 149 148 146 145 144 148 146 142 139 132 129 125
307 262 233 255 257 219 230 170 218 205 32 316 249 248 239 262 3 330 302 112 161 155 157 164 162 168 172 170 165 158 158 155 157 156 157 156 151 150 148 146 149 151 151 150 148 144 135 134 130
254 255 261 241 249 253 282 114 275 129 342 272 268 309 313 84 354 323 317 284 179 165 167 163 162 167 174 177 167 160 161 162 159 158 160 159 154 152 152 153 156 158 159 155 151 148 145 144 142
215 202 210 251 239 37 306 335 5 194 317 196 328 276 280 121 355 331 299 274 196 174 173 152 163 164 172 181 175 168 167 166 164 163 162 161 159 156 156 158 161 164 165 162 161 159 154 153 153
220 258 251 241 211 220 244 288 320 279 283 271 340 324 301 359 358 346 311 217 190 178 176 161 166 166 173 180 181 179 174 173 171 168 163 163 164 161 163 164 165 169 168 168 165 164 162 159 162
223 268 241 236 232 213 215 255 283 291 289 278 269 310 277 4 3 351 325 201 190 177 176 165 172 164 173 178 182 188 182 181 179 174 166 165 167 169 169 166 167 170 173 173 169 168 171 169 172
241 226 249 250 251 211 228 214 255 285 293 294 344 300 344 357 2 356 338 219 194 176 176 167 178 171 172 175 179 185 190 190 187 180 171 168 166 170 170 169 174 175 179 177 172 173 179 185 189
243 248 251 245 250 234 222 218 234 241 278 332 300 318 329 343 339 343 4 216 188 176 179 173 179 179 183 182 180 178 186 189 187 185 177 168 161 167 165 172 185 188 188 183 176 177 184 194 199
234 236 238 240 240 250 224 211 209 239 265 291 302 299 332 326 323 332 40 191 196 182 183 181 179 182 186 184 179 178 174 179 170 182 174 162 194 181 172 201 163 200 197 189 184 190 191 199 214
219 228 241 244 251 247 236 225 205 214 246 260 284 288 314 324 321 330 352 196 196 195 190 189 180 187 189 189 182 197 192 199 198 199 190 208 206 200 210 182 167 199 209 198 199 196 197 211 233
222 245 245 245 238 251 261 231 238 213 251 262 290 308 307 311 311 326 329 18 235 195 203 208 179 196 195 194 186 187 195 197 199 208 202 205 198 197 206 199 201 213 201 221 200 202 221 219 237
247 241 257 262 236 243 242 250 253 259 261 287 291 290 293 293 299 304 320 306 259 206 197 202 195 200 204 189 192 193 194 195 200 200 203 204 210 196 217 209 212 211 216 223 228 222 235 232 238
239 248 230 245 254 246 254 250 264 273 286 277 285 288 287 289 286 284 306 284 293 213 208 202 193 210 201 213 190 206 200 197 203 197 199 204 208 207 210 215 222 218 218 215 233 233 231 235 242
252 257 235 234 241 243 254 258 249 251 232 245 256 290 289 296 293 296 279 319 246 244 224 217 199 195 202 206 204 195 204 197 215 211 208 211 207 205 212 212 220 225 228 227 233 231 237 232 249
246 250 233 233 240 246 267 256 239 254 256 266 270 269 273 269 282 291 340 340 326 265 247 219 216 196 198 196 201 202 205 215 202 215 217 210 213 206 220 217 219 221 224 231 221 223 221 248 244
239 240 242 191 220 219 225 254 105 152 232 227 267 251 259 264 276 317 24 39 352 338 292 230 218 208 198 197 195 205 215 201 215 210 210 214 215 218 217 224 226 222 224 227 241 223 208 223 241
203 257 214 148 212 205 223 258 144 205 274 280 264 263 266 277 277 254 333 39 0 345 354 262 211 212 192 222 216 207 212 215 213 202 210 201 212 215 231 220 204 212 220 217 240 238 244 214 226
221 230 212 252 162 242 248 251 239 242 248 261 272 277 271 273 276 294 299 333 13 8 12 25 306 180 191 202 240 220 210 218 215 217 219 208 209 222 217 204 177 197 219 216 217 224 220 250 230
278 262 260 240 281 271 260 267 267 256 257 246 251 255 270 265 284 288 298 333 346 11 2 17 10 320 179 196 207 218 221 216 229 220 216 206 210 217 205 217 185 200 220 223 198 194 204 229 227
242 249 252 278 263 289 277 283 277 263 255 242 240 240 240 254 278 292 294 325 347 352 8 349 346 337 265 218 217 230 180 209 240 217 231 211 215 218 201 226 205 182 171 235 242 191 198 231 201
233 263 283 283 315 271 275 264 215 203 228 193 205 216 250 268 292 294 316 331 338 347 352 339 327 322 311 302 261 237 239 229 208 219 219 214 209 212 200 223 211 189 206 208 222 202 198 221 204
264 179 273 276 279 289 65 289 189 199 186 176 143 213 257 255 293 267 291 326 332 330 336 337 328 319 299 303 278 269 253 236 220 230 247 227 213 206 210 211 210 210 209 224 205 203 207 233 214
287 270 269 287 277 279 249 237 192 185 194 161 63 38 351 140 153 332 332 338 327 325 328 316 319 316 300 290 277 266 244 259 254 242 231 213 211 207 214 211 217 215 216 216 218 201 204 207 237
327 250 252 250 257 244 230 248 209 171 216 148 302 312 256 27 319 307 326 311 313 320 321 322 314 311 305 278 268 259 268 268 263 246 246 234 225 207 214 217 213 215 219 222 213 210 205 222 211
235 256 269 233 199 245 96 259 275 133 170 291 312 304 250 219 288 320 314 331 312 299 310 311 315 312 309 295 278 258 253 251 253 253 248 242 233 226 205 208 216 219 217 217 206 206 211 208 211
235 300 286 284 281 302 196 247 122 97 288 284 265 281 265 259 297 297 308 310 318 294 301 306 309 303 307 300 284 273 262 256 250 242 249 249 240 232 210 211 214 214 215 209 206 204 213 204 205
248 235 333 301 260 256 248 219 223 203 202 198 272 312 274 259 280 301 314 316 315 306 289 300 308 307 304 298 287 269 263 262 266 264 247 240 249 237 212 211 220 213 213 197 199 211 201 193 195
264 336 224 210 261 257 244 255 250 187 302 335 300 299 311 300 301 305 307 308 314 298 292 291 291 298 297 292 286 275 267 257 246 249 253 247 241 232 231 210 214 208 204 194 192 200 194 187 184
210 229 228 303 281 276 285 275 72 335 300 320 289 305 305 295 288 297 300 303 299 294 284 282 287 290 296 292 283 275 273 270 265 257 248 239 230 230 224 209 202 198 195 191 191 198 178 183 181
285 273 229 236 225 233 279 277 359 313 303 272 285 310 307 304 296 290 290 296 293 292 289 281 281 286 287 290 284 273 269 270 266 260 253 247 233 221 221 205 193 191 192 189 193 190 174 184 185